PEGASUS DEB, 39312

Orbit data source: Space-Track

PEGASUS DEB, 39312 is space debris in LEO originally from a launch on Thu, 19 May 1994 UTC launched from the Air Force Western Test Range (AFWTR). Debris objects in space refer to the collection of defunct objects orbiting the Earth. Examples of debris include non-operational satellites, rocket bodies, and fragments generated from explosions, collisions, or faulty payload assembly.

Loading next visibility...
Identifier
39312, 1994-029AEX
Orbit
LEO
Country
Flag of USUS
Related business
Manufacturer
Unknown
Mission
Spacecraft
Bus & Motor
Unknown
Mass
Unknown
Launch date (UTC)
1994-05-19 (32 years ago)
Launch vehicle
Unknown
Launch site
Air Force Western Test Range (AFWTR)
Object type
Payload
Rocket body
Debris
Shape & HBR
Unknown shape, 0.1 m
Radar Cross Section
Small (<0.1 m²)

Expand to show TLE details & history
Last TLE update: 3 weeks ago

TLE from 3 weeks ago
0 PEGASUS DEB
1 39312U 94029AEX 26040.58438563  .00009040  00000-0  11300-2 0  9996
2 39312  81.9792 145.3140 0196411 139.3112 222.2961 14.69443748670351
Epoch: 2026-02-09T14:01Z
TLE epoch observation values (Epoch: 2026-02-09T14:01:30.918Z)
Latitude
-0.00001°
Longitude
155.25807°
Altitude
769.369 km
Speed
7.414 km/s
True Right ascension
09h 41m 15s
True Declination
0° 00' 00"
Sunlit
Object was in full shadow at epoch
Visualization orbit readout
Latitude
Unknown
Longitude
Unknown
Altitude
Unknown
Speed
Unknown
Apparent Right ascension
Unknown
Apparent Declination
Unknown
Sunlit
N/A
Visualization observer readout
Local Sidereal Time
04:08:27
Azimuth
Unknown
Elevation
Unknown
Doppler factor
Unknown
Orbital elements
Apogee altitude
798.138 km
Perigee altitude
521.668 km
Semi-major axis
7,038.04 km
Eccentricity
0.01964
Inclination
81.9792°
RAAN
145.314°
Arg. of periapsis
139.3112°
True anomaly
220.80866°
Mean anomaly
222.2961°
Eccentric anomaly
221.54969°
Mean motion
3.67592 °/min
Orbital period
97.93 mins
BSTAR
0.00113
Loading maneuver chart data...
Computing Atmospheric mass density...

Documentation

Showing up to 5 results
|